Kelso-Longview, WA
on Thursday, January 10, 2013

Thursday
Previous Day Next Day
Daily Summary
 ActualAverage (KSPB)Record (KSPB)
Temperature
Mean Temperature °F °F  
Max Temperature 39°F °F 55°F (2006)
Min Temperature 33°F °F 24°F (2011)
Degree Days
Heating Degree Days 29    
Month to date heating degree days  
Since 1 July heating degree days  
Cooling Degree Days 0    
Month to date cooling degree days  
Year to date cooling degree days  
Moisture
Dew Point 33°F   
Average Humidity 87    
Maximum Humidity 93    
Minimum Humidity 75    
Precipitation
Precipitation 0.04 in in 1.49 in (2006)
Month to date precipitation  
Year to date precipitation  
Wind
Wind Speed 3 mph   
Max Wind Speed 8 mph   
Max Gust Speed mph   
Visibility 7 miles   
Events     

Key: T is trace of precipitation, MM is missing value
Source: NWS Daily Summary
Time(PST)TemperatureDew PointHumidity Pressure Visibility Wind DirectionWind SpeedGust SpeedPrecipitationEvents Conditions
12:15 AM 35.6°F 32.0°F 87% 29.99 in 6.0 miles SE 3.5 mph - N/A   Mostly Cloudy
12:55 AM 35.6°F 32.0°F 87% 29.99 in 1.0 miles Calm Calm - N/A   Overcast
1:35 AM 33.8°F 32.0°F 93% 29.99 in 0.5 miles Calm Calm - N/A   Overcast
2:15 AM 33.8°F 32.0°F 93% 30.01 in 7.0 miles East 3.5 mph - N/A   Overcast
2:35 AM 35.6°F 32.0°F 87% 30.01 in 3.0 miles SE 3.5 mph - N/A   Overcast
2:55 AM 35.6°F 32.0°F 87% 30.01 in 2.5 miles SSE 3.5 mph - N/A   Overcast
3:15 AM 33.8°F 32.0°F 93% 30.01 in 7.0 miles SSE 5.8 mph - N/A   Overcast
3:35 AM 33.8°F 32.0°F 93% 30.01 in 7.0 miles SE 4.6 mph - N/A   Overcast
3:55 AM 35.6°F 32.0°F 87% 30.01 in 0.8 miles SSE 4.6 mph - N/A   Overcast
4:35 AM 35.6°F 32.0°F 87% 30.01 in 0.5 miles SSE 3.5 mph - N/A   Overcast
4:55 AM 35.6°F 32.0°F 87% 30.01 in 2.0 miles SE 3.5 mph - N/A   Overcast
5:15 AM 35.6°F 32.0°F 87% 30.01 in 1.5 miles SE 3.5 mph - N/A   Overcast
5:35 AM 35.6°F 32.0°F 87% 30.01 in 2.5 miles SE 3.5 mph - N/A   Overcast
5:55 AM 35.6°F 33.8°F 93% 30.02 in 2.5 miles SE 4.6 mph - N/A   Overcast
6:15 AM 35.6°F 33.8°F 93% 30.03 in 3.0 miles SE 3.5 mph - N/A   Overcast
6:35 AM 35.6°F 32.0°F 87% 30.03 in 5.0 miles SSE 8.1 mph - N/A   Overcast
6:55 AM 35.6°F 32.0°F 87% 30.04 in 6.0 miles SSE 6.9 mph - N/A   Overcast
7:15 AM 35.6°F 32.0°F 87% 30.04 in 7.0 miles SSE 6.9 mph - N/A   Overcast
7:35 AM 35.6°F 32.0°F 87% 30.06 in 6.0 miles SE 3.5 mph - N/A   Overcast
7:55 AM 35.6°F 32.0°F 87% 30.06 in 5.0 miles SSE 4.6 mph - N/A   Overcast
8:15 AM 35.6°F 32.0°F 87% 30.07 in 4.0 miles SSE 3.5 mph - N/A   Overcast
8:35 AM 35.6°F 32.0°F 87% 30.07 in 5.0 miles SSE 3.5 mph - N/A   Overcast
8:55 AM 35.6°F 33.8°F 93% 30.08 in 4.0 miles Calm Calm - N/A   Overcast
9:15 AM 35.6°F 32.0°F 87% 30.09 in 5.0 miles SSE 4.6 mph - N/A   Overcast
9:35 AM 35.6°F 33.8°F 93% 30.09 in 7.0 miles SE 4.6 mph - N/A   Overcast
9:55 AM 37.4°F 33.8°F 87% 30.09 in 5.0 miles SSE 3.5 mph - N/A   Overcast
10:15 AM 37.4°F 33.8°F 87% 30.09 in 5.0 miles SE 3.5 mph - N/A   Overcast
10:35 AM 37.4°F 33.8°F 87% 30.09 in 7.0 miles SSE 4.6 mph - N/A   Overcast
10:55 AM 37.4°F 33.8°F 87% 30.09 in 7.0 miles SE 3.5 mph - N/A   Overcast
12:15 PM 37.4°F 33.8°F 87% 30.07 in 10.0 miles Calm Calm - N/A   Overcast
12:35 PM 37.4°F 32.0°F 81% 30.07 in 10.0 miles Calm Calm - N/A   Overcast
1:15 PM 39.2°F 33.8°F 81% 30.08 in 10.0 miles Calm Calm - N/A   Overcast
1:35 PM 39.2°F 32.0°F 75% 30.08 in 10.0 miles Calm Calm - N/A   Overcast
1:55 PM 39.2°F 32.0°F 75% 30.09 in 10.0 miles WNW 3.5 mph - N/A   Overcast
2:15 PM 39.2°F 32.0°F 75% 30.09 in 10.0 miles Calm Calm - N/A   Overcast
2:35 PM 39.2°F 32.0°F 75% 30.09 in 10.0 miles Calm Calm - N/A   Overcast
2:55 PM 39.2°F 32.0°F 75% 30.09 in 10.0 miles Calm Calm - N/A   Overcast
3:15 PM 39.2°F 33.8°F 81% 30.09 in 10.0 miles Calm Calm - N/A   Overcast
3:35 PM 39.2°F 33.8°F 81% 30.09 in 7.0 miles Calm Calm - 0.01 in   Overcast
3:55 PM 37.4°F 33.8°F 87% 30.09 in 5.0 miles NE 4.6 mph - 0.02 in   Overcast
4:15 PM 37.4°F 33.8°F 87% 30.10 in 8.0 miles NNE 3.5 mph - 0.02 in   Overcast
4:35 PM 37.4°F 33.8°F 87% 30.10 in 10.0 miles NNE 3.5 mph - 0.02 in   Overcast
4:55 PM 37.4°F 33.8°F 87% 30.10 in 10.0 miles Calm Calm - 0.02 in   Overcast
5:15 PM 37.4°F 33.8°F 87% 30.10 in 10.0 miles Calm Calm - N/A   Mostly Cloudy
5:35 PM 35.6°F 32.0°F 87% 30.09 in 10.0 miles Calm Calm - N/A   Scattered Clouds
5:55 PM 35.6°F 32.0°F 87% 30.10 in 10.0 miles Calm Calm - N/A   Mostly Cloudy
6:15 PM 35.6°F 33.8°F 93% 30.10 in 10.0 miles Calm Calm - N/A   Overcast
6:35 PM 35.6°F 32.0°F 87% 30.10 in 10.0 miles Calm Calm - N/A   Overcast
6:55 PM 35.6°F 33.8°F 93% 30.10 in 10.0 miles Calm Calm - N/A   Overcast
7:15 PM 35.6°F 33.8°F 93% 30.10 in 10.0 miles Calm Calm - N/A   Overcast
7:35 PM 35.6°F 33.8°F 93% 30.10 in 10.0 miles Calm Calm - N/A   Overcast
7:55 PM 35.6°F 33.8°F 93% 30.10 in 10.0 miles NE 3.5 mph - N/A   Overcast
8:15 PM 37.4°F 33.8°F 87% 30.10 in 10.0 miles Calm Calm - N/A   Overcast
8:35 PM 37.4°F 33.8°F 87% 30.10 in 10.0 miles Calm Calm - N/A   Overcast
8:55 PM 35.6°F 33.8°F 93% 30.10 in 10.0 miles Calm Calm - N/A   Overcast
9:15 PM 35.6°F 32.0°F 87% 30.11 in 10.0 miles Calm Calm - N/A   Overcast
9:35 PM 35.6°F 32.0°F 87% 30.10 in 5.0 miles Calm Calm - N/A   Mostly Cloudy
9:55 PM 33.8°F 30.2°F 87% 30.11 in 3.0 miles NW 3.5 mph - N/A   Mostly Cloudy
10:15 PM 33.8°F 32.0°F 93% 30.11 in 5.0 miles Calm Calm - N/A   Overcast
10:35 PM 35.6°F 32.0°F 87% 30.11 in 6.0 miles NNW 4.6 mph - N/A   Overcast
10:55 PM 35.6°F 32.0°F 87% 30.12 in 5.0 miles Calm Calm - N/A   Overcast
11:15 PM 33.8°F 30.2°F 87% 30.12 in 4.0 miles Calm Calm - N/A   Overcast
11:35 PM 33.8°F 30.2°F 87% 30.12 in 4.0 miles NW 3.5 mph - N/A   Overcast
11:55 PM 33.8°F 32.0°F 93% 30.12 in 10.0 miles NNW 3.5 mph - N/A   Overcast
Moon Phase
Jan. 10 Jan. 11 Jan. 18 Jan. 26 Feb. 03
Sunrise:07:52 AM (PST) Moon Rise:06:36 AM (PST)1/10
Sunset:04:46 PM (PST) Moon Set:04:01 PM (PST)1/10

Copyright © 2014 The Weather Underground, Inc.